FW7721 Weather Reports


Display with metric or nautical units.
time (UTC)temp
F
wind
direction
speed
MPH
gust
MPH
rain 1hr
in
rain 24hr
in
rain mn
in
humidity
%
barometer
mb
20260507211533 52 216 9.0 17.0 0.00 1.15 1.15 98 1002.0
20260507210030 53 207 9.0 19.0 0.01 1.15 1.15 99 1002.4
20260507204524 53 230 9.0 15.0 0.02 1.15 1.15 99 1002.1
20260507203026 52 197 7.0 12.0 0.03 1.15 1.15 99 1001.7
20260507201523 52 178 8.0 17.0 0.06 1.15 1.15 99 1001.3
20260507200022 52 152 5.0 14.0 0.09 1.14 1.14 99 1001.7
20260507194530 52 185 5.0 11.0 0.13 1.13 1.13 99 1002.7
20260507193016 52 226 7.0 14.0 0.23 1.12 1.12 99 1003.1
20260507191514 51 196 5.0 8.0 0.31 1.10 1.10 99 1003.3
20260507190019 51 167 4.0 8.0 0.34 1.05 1.05 99 1003.7
20260507184509 51 202 3.0 6.0 0.39 1.00 1.00 98 1004.1
20260507183011 51 198 4.0 11.0 0.44 0.89 0.89 98 1004.4
20260507181508 51 175 7.0 16.0 0.56 0.79 0.79 98 1004.7
20260507180006 52 227 6.0 13.0 0.54 0.70 0.70 98 1005.0
20260507174510 52 198 6.0 18.0 0.49 0.61 0.61 98 1004.9
20260507173016 52 179 11.0 21.0 0.35 0.45 0.45 98 1005.1
20260507171503 53 180 11.0 22.0 0.15 0.22 0.22 98 1004.6
20260507170005 54 148 11.0 23.0 0.13 0.16 0.16 98 1004.1
20260507164502 53 183 8.0 22.0 0.09 0.12 0.12 98 1004.5
20260507163100 53 205 13.0 20.0 0.08 0.11 0.11 98 1004.8
20260507161600 54 215 8.0 19.0 0.04 0.07 0.07 98 1005.1
20260507160054 54 179 8.0 22.0 0.01 0.04 0.04 97 1005.8
20260507154557 55 158 10.0 21.0 0.00 0.03 0.03 96 1006.1
20260507153055 54 171 10.0 22.0 0.00 0.03 0.03 96 1006.5
20260507151549 54 231 10.0 22.0 0.00 0.03 0.03 96 1007.1
20260507150047 55 211 11.0 33.0 0.00 0.03 0.03 95 1007.6
20260507144544 55 214 9.0 21.0 0.00 0.03 0.03 95 1007.8
20260507143047 56 219 15.0 26.0 0.00 0.03 0.03 95 1007.8
20260507141543 56 169 11.0 29.0 0.00 0.03 0.03 95 1008.1
20260507140043 55 165 9.0 22.0 0.00 0.03 0.03 96 1008.4
20260507134539 56 120 10.0 20.0 0.00 0.03 0.03 96 1008.8
20260507133035 56 193 9.0 24.0 0.00 0.03 0.03 96 1009.1
20260507131538 56 159 7.0 26.0 0.00 0.03 0.03 96 1009.1
20260507130039 55 201 10.0 19.0 0.00 0.03 0.03 96 1009.3
20260507124539 56 196 7.0 22.0 0.00 0.03 0.03 96 1009.3
20260507123030 56 219 12.0 24.0 0.00 0.03 0.03 97 1009.6
20260507121528 55 165 8.0 19.0 0.01 0.03 0.03 97 1009.6
20260507120025 55 161 9.0 21.0 0.03 0.03 0.03 98 1010.0
20260507114532 54 173 6.0 22.0 0.03 0.03 0.03 98 1010.2
20260507113039 54 199 12.0 19.0 0.03 0.03 0.03 98 1010.2
20260507111525 53 164 9.0 24.0 0.02 0.02 0.02 97 1010.3
20260507110020 54 153 9.0 21.0 0.00 0.00 0.00 96 1010.2
20260507104519 54 178 4.0 13.0 0.00 0.00 0.00 97 1010.4
20260507103021 54 190 7.0 20.0 0.00 0.00 0.00 97 1010.7
20260507101519 54 149 9.0 21.0 0.00 0.00 0.00 98 1010.6
20260507100016 54 215 6.0 17.0 0.00 0.00 0.00 97 1010.8
20260507094517 54 190 11.0 26.0 0.00 0.00 0.00 97 1010.3
20260507093014 54 197 15.0 25.0 0.00 0.00 0.00 97 1011.0
20260507091513 54 196 13.0 24.0 0.00 0.00 0.00 98 1011.0
20260507090013 54 113 10.0 25.0 0.00 0.00 0.00 99 1011.1
20260507084508 53 182 7.0 16.0 0.00 0.00 0.00 99 1011.3
20260507083006 52 194 4.0 17.0 0.00 0.00 0.00 99 1011.2
20260507081506 52 182 10.0 17.0 0.00 0.00 0.00 99 1011.4
20260507074603 51 159 6.0 11.0 0.00 0.00 0.00 99 1011.9
20260507073101 51 159 6.0 15.0 0.00 0.00 0.00 99 1012.0
20260507071553 51 223 9.0 17.0 0.00 0.00 0.00 99 1012.5
20260507070050 51 194 4.0 8.0 0.00 0.00 0.00 98 1013.1
20260507064550 50 222 5.0 11.0 0.00 0.00 0.00 98 1013.4
20260507063047 50 200 2.0 8.0 0.00 0.00 0.00 98 1013.6
20260507061546 51 191 0.0 5.0 0.00 0.00 0.00 98 1013.8
20260507060058 51 192 1.0 12.0 0.00 0.00 0.00 98 1013.6
20260507054543 50 185 5.0 11.0 0.00 0.00 0.00 98 1013.7
20260507053042 50 227 3.0 6.0 0.00 0.00 0.00 98 1014.0
20260507051540 51 246 4.0 13.0 0.00 0.00 0.00 98 1014.5
20260507050041 51 217 4.0 11.0 0.00 0.00 0.00 98 1014.7
20260507044638 51 219 6.0 15.0 0.00 0.00 0.00 98 1015.0
20260507043041 51 172 5.0 14.0 0.00 0.00 0.00 98 1015.2
20260507041530 51 215 9.0 15.0 0.00 0.00 0.00 98 1015.7
20260507040026 51 225 8.0 17.0 0.00 0.00 0.00 98 1016.0
20260507034532 51 217 6.0 14.0 0.00 0.00 0.00 98 1016.2
20260507033023 51 210 6.0 12.0 0.00 0.00 0.00 98 1016.2
20260507031521 51 211 6.0 13.0 0.00 0.00 0.00 98 1016.6
20260507030018 50 208 5.0 13.0 0.00 0.00 0.00 98 1016.8
20260507024519 50 205 7.0 15.0 0.00 0.00 0.00 98 1016.9
20260507023016 50 220 8.0 16.0 0.00 0.00 0.00 97 1017.0
20260507021515 49 200 10.0 17.0 0.00 0.00 0.00 97 1017.4
20260507020018 49 211 11.0 19.0 0.00 0.00 0.00 96 1017.4
20260507014510 50 225 6.0 14.0 0.00 0.00 0.00 96 1017.6
20260507013013 50 190 5.0 12.0 0.00 0.00 0.00 96 1017.6
20260507011511 50 206 7.0 17.0 0.00 0.00 0.00 95 1017.7
20260507010006 50 209 7.0 13.0 0.00 0.00 0.00 95 1017.8
20260507004504 51 193 6.0 13.0 0.00 0.00 0.00 95 1018.0
20260507003004 51 227 7.0 13.0 0.00 0.00 0.00 95 1018.1
20260507001505 51 217 9.0 22.0 0.00 0.00 0.00 95 1018.0
20260506234600 52 163 6.0 17.0 0.00 0.00 0.00 94 1018.1
20260506233101 52 209 8.0 13.0 0.00 0.00 0.00 92 1018.0
20260506231606 53 213 9.0 14.0 0.00 0.00 0.00 91 1017.9
20260506230112 53 199 10.0 16.0 0.00 0.00 0.00 89 1017.8
20260506224555 54 227 9.0 17.0 0.00 0.00 0.00 89 1017.7
20260506223058 54 165 10.0 19.0 0.00 0.00 0.00 88 1017.4
20260506221607 54 186 12.0 17.0 0.00 0.00 0.00 88 1017.4
20260506220055 54 213 10.0 17.0 0.00 0.00 0.00 87 1017.6
20260506214555 54 223 10.0 21.0 0.00 0.00 0.00 86 1017.6
20260506213052 55 178 10.0 21.0 0.00 0.00 0.00 84 1017.4